| time (UTC) | temp F | wind direction | speed MPH | gust MPH | rain 1hr in | rain 24hr in | rain mn in | humidity % | barometer mb |
| 20260904175421 | 82 | 315 | 2.0 | 3.0 | 0.00 | 0.98 | 0.98 | 55 | 1026.6 |
| 20260904174519 | 82 | 315 | 1.0 | 3.0 | 0.00 | 0.98 | 0.98 | 56 | 1026.3 |
| 20260904173522 | 82 | 315 | 2.0 | 6.0 | 0.00 | 0.98 | 0.98 | 57 | 1026.5 |
| 20260904172521 | 83 | 315 | 3.0 | 6.0 | 0.00 | 0.98 | 0.98 | 59 | 1026.5 |
| 20260904171520 | 82 | 315 | 2.0 | 5.0 | 0.00 | 0.98 | 0.98 | 60 | 1026.5 |
| 20260904170619 | 83 | 315 | 2.0 | 6.0 | 0.00 | 0.98 | 0.98 | 60 | 1026.7 |
| 20260904164720 | 81 | 315 | 0.0 | 2.0 | 0.00 | 0.98 | 0.98 | 64 | 1026.5 |
| 20260904163722 | 82 | 315 | 0.0 | 0.0 | 0.00 | 0.98 | 0.98 | 67 | 1026.5 |
| 20260904162721 | 81 | 315 | 3.0 | 6.0 | 0.00 | 0.98 | 0.98 | 68 | 1026.6 |
| 20260904160722 | 80 | 315 | 2.0 | 5.0 | 0.00 | 0.98 | 0.98 | 68 | 1026.8 |
| 20260904154820 | 81 | 315 | 3.0 | 7.0 | 0.00 | 0.98 | 0.98 | 73 | 1026.8 |
| 20260904153822 | 81 | 315 | 1.0 | 2.0 | 0.00 | 0.98 | 0.98 | 74 | 1026.9 |
| 20260904152920 | 80 | 315 | 2.0 | 6.0 | 0.00 | 0.98 | 0.98 | 76 | 1027.0 |
| 20260904151921 | 80 | 315 | 0.0 | 3.0 | 0.00 | 0.98 | 0.98 | 77 | 1027.0 |
| 20260904150019 | 79 | 315 | 1.0 | 3.0 | 0.00 | 0.98 | 0.98 | 78 | 1027.0 |
| 20260904145020 | 79 | 315 | 2.0 | 3.0 | 0.00 | 0.98 | 0.98 | 78 | 1027.0 |
| 20260904144020 | 78 | 315 | 1.0 | 4.0 | 0.00 | 0.98 | 0.98 | 79 | 1027.0 |
| 20260904143021 | 77 | 315 | 0.0 | 2.0 | 0.00 | 0.98 | 0.98 | 79 | 1027.0 |
| 20260904142020 | 79 | 315 | 1.0 | 3.0 | 0.00 | 0.98 | 0.98 | 78 | 1027.0 |
| 20260904141021 | 78 | 315 | 1.0 | 2.0 | 0.00 | 0.98 | 0.98 | 80 | 1026.8 |
| 20260904140020 | 76 | 315 | 1.0 | 1.0 | 0.00 | 0.98 | 0.98 | 83 | 1026.8 |
| 20260904135020 | 76 | 315 | 1.0 | 4.0 | 0.00 | 0.98 | 0.98 | 84 | 1026.8 |
| 20260904133119 | 74 | 315 | 2.0 | 3.0 | 0.00 | 0.98 | 0.98 | 86 | 1026.8 |
| 20260904132123 | 74 | 315 | 2.0 | 4.0 | 0.00 | 0.98 | 0.98 | 87 | 1026.7 |
| 20260904131122 | 74 | 310 | 3.0 | 8.0 | 0.00 | 0.98 | 0.98 | 87 | 1026.8 |
| 20260904130220 | 74 | 337 | 2.0 | 4.0 | 0.00 | 0.98 | 0.98 | 87 | 1026.7 |
| 20260904125222 | 74 | 337 | 2.0 | 6.0 | 0.00 | 0.98 | 0.98 | 88 | 1026.8 |
| 20260904124221 | 73 | 292 | 4.0 | 6.0 | 0.00 | 0.98 | 0.98 | 89 | 1026.7 |
| 20260904123221 | 73 | 292 | 2.0 | 4.0 | 0.00 | 0.98 | 0.98 | 90 | 1026.7 |
| 20260904122320 | 73 | 292 | 2.0 | 4.0 | 0.00 | 0.98 | 0.98 | 91 | 1026.7 |
| 20260904121323 | 73 | 292 | 1.0 | 2.0 | 0.00 | 0.98 | 0.98 | 92 | 1026.8 |
| 20260904120420 | 73 | 297 | 2.0 | 4.0 | 0.00 | 0.98 | 0.98 | 92 | 1026.8 |
| 20260904115419 | 73 | 323 | 2.0 | 4.0 | 0.00 | 0.98 | 0.98 | 93 | 1026.7 |
| 20260904113421 | 74 | 292 | 2.0 | 3.0 | 0.00 | 0.98 | 0.98 | 93 | 1026.7 |
| 20260904112423 | 74 | 297 | 1.0 | 4.0 | 0.00 | 0.98 | 0.98 | 94 | 1026.7 |
| 20260904111520 | 74 | 298 | 2.0 | 3.0 | 0.00 | 0.98 | 0.98 | 95 | 1026.6 |
| 20260904110522 | 73 | 292 | 1.0 | 2.0 | 0.00 | 0.98 | 0.98 | 94 | 1026.7 |
| 20260904105618 | 73 | 292 | 0.0 | 1.0 | 0.00 | 0.98 | 0.98 | 94 | 1026.6 |
| 20260904104620 | 72 | 292 | 0.0 | 1.0 | 0.01 | 0.98 | 0.98 | 94 | 1026.3 |
| 20260904103621 | 72 | 292 | 0.0 | 0.0 | 0.01 | 0.98 | 0.98 | 94 | 1026.1 |
| 20260904102719 | 72 | 292 | 1.0 | 2.0 | 0.01 | 0.98 | 0.98 | 94 | 1026.3 |
| 20260904101719 | 72 | 292 | 0.0 | 0.0 | 0.01 | 0.98 | 0.98 | 94 | 1026.0 |
| 20260904100721 | 73 | 292 | 2.0 | 4.0 | 0.01 | 0.98 | 0.98 | 94 | 1025.8 |
| 20260904095720 | 73 | 292 | 0.0 | 0.0 | 0.01 | 0.98 | 0.98 | 95 | 1025.7 |
| 20260904094721 | 73 | 292 | 0.0 | 0.0 | 0.00 | 0.97 | 0.97 | 94 | 1025.8 |
| 20260904093720 | 73 | 292 | 0.0 | 0.0 | 0.00 | 0.97 | 0.97 | 94 | 1025.7 |
| 20260904092720 | 74 | 292 | 0.0 | 0.0 | 0.00 | 0.97 | 0.97 | 95 | 1025.8 |
| 20260904090819 | 74 | 292 | 0.0 | 0.0 | 0.00 | 0.97 | 0.97 | 95 | 1025.6 |
| 20260904084918 | 74 | 292 | 0.0 | 0.0 | 0.00 | 0.97 | 0.97 | 95 | 1025.8 |
| 20260904083923 | 74 | 292 | 0.0 | 1.0 | 0.00 | 0.97 | 0.97 | 95 | 1026.0 |
| 20260904082921 | 74 | 292 | 1.0 | 2.0 | 0.00 | 0.97 | 0.97 | 95 | 1026.1 |
| 20260904082021 | 74 | 337 | 2.0 | 3.0 | 0.00 | 0.97 | 0.97 | 94 | 1026.1 |
| 20260904081020 | 74 | 157 | 0.0 | 0.0 | 0.00 | 0.97 | 0.97 | 94 | 1025.8 |
| 20260904080020 | 74 | 157 | 0.0 | 0.0 | 0.00 | 0.98 | 0.97 | 94 | 1025.6 |
| 20260904075020 | 74 | 67 | 0.0 | 0.0 | 0.00 | 0.98 | 0.97 | 94 | 1025.7 |
| 20260904073021 | 74 | 67 | 0.0 | 0.0 | 0.09 | 0.98 | 0.97 | 94 | 1025.7 |
| 20260904072021 | 74 | 67 | 0.0 | 0.0 | 0.31 | 0.98 | 0.97 | 94 | 1025.7 |
| 20260904071119 | 74 | 337 | 0.0 | 1.0 | 0.74 | 0.98 | 0.97 | 94 | 1026.0 |
| 20260904070121 | 75 | 337 | 0.0 | 1.0 | 0.97 | 0.98 | 0.97 | 94 | 1026.3 |
| 20260904065121 | 75 | 329 | 0.0 | 1.0 | 0.97 | 0.98 | 0.97 | 94 | 1026.1 |
| 20260904064220 | 74 | 295 | 0.0 | 2.0 | 0.96 | 0.97 | 0.95 | 94 | 1026.2 |
| 20260904063220 | 73 | 225 | 0.0 | 1.0 | 0.88 | 0.89 | 0.88 | 93 | 1026.0 |
| 20260904061221 | 75 | 301 | 6.0 | 10.0 | 0.31 | 0.33 | 0.23 | 93 | 1027.2 |
| 20260904060319 | 75 | 337 | 0.0 | 0.0 | 0.00 | 0.02 | 0.00 | 93 | 1026.5 |
| 20260904055319 | 75 | 180 | 0.0 | 0.0 | 0.00 | 0.02 | 0.00 | 93 | 1026.7 |
| 20260904054320 | 75 | 180 | 0.0 | 0.0 | 0.00 | 0.02 | 0.00 | 93 | 1026.7 |
| 20260904052418 | 75 | 180 | 0.0 | 0.0 | 0.00 | 0.03 | 0.00 | 92 | 1026.8 |
| 20260904051419 | 75 | 180 | 0.0 | 0.0 | 0.00 | 0.03 | 0.00 | 92 | 1027.0 |
| 20260904050421 | 75 | 180 | 0.0 | 0.0 | 0.00 | 0.03 | 0.00 | 92 | 1027.0 |
| 20260904045420 | 75 | 180 | 0.0 | 0.0 | 0.00 | 0.03 | 0.00 | 92 | 1027.2 |
| 20260904044420 | 74 | 180 | 0.0 | 0.0 | 0.00 | 0.03 | 0.00 | 92 | 1027.4 |
| 20260904043420 | 74 | 180 | 0.0 | 0.0 | 0.00 | 0.03 | 0.00 | 92 | 1027.4 |
| 20260904042418 | 74 | 180 | 0.0 | 0.0 | 0.00 | 0.03 | 0.00 | 92 | 1027.4 |
| 20260904041419 | 74 | 180 | 0.0 | 0.0 | 0.00 | 0.03 | 0.00 | 92 | 1027.3 |
| 20260904040519 | 74 | 180 | 0.0 | 0.0 | 0.00 | 0.03 | 0.00 | 92 | 1027.4 |
| 20260904035529 | 74 | 180 | 0.0 | 0.0 | 0.00 | 0.03 | 0.03 | 91 | 1027.6 |
| 20260904033627 | 75 | 180 | 0.0 | 0.0 | 0.00 | 0.03 | 0.03 | 91 | 1027.6 |
| 20260904032628 | 75 | 180 | 0.0 | 0.0 | 0.00 | 0.03 | 0.03 | 91 | 1027.4 |
| 20260904031627 | 75 | 180 | 0.0 | 0.0 | 0.00 | 0.03 | 0.03 | 90 | 1027.7 |
| 20260904025725 | 75 | 180 | 0.0 | 0.0 | 0.00 | 0.03 | 0.03 | 90 | 1027.7 |
| 20260904024727 | 75 | 180 | 0.0 | 0.0 | 0.00 | 0.03 | 0.03 | 90 | 1028.0 |
| 20260904023826 | 74 | 180 | 0.0 | 0.0 | 0.00 | 0.03 | 0.03 | 90 | 1028.1 |
| 20260904022828 | 74 | 180 | 0.0 | 0.0 | 0.00 | 0.03 | 0.03 | 90 | 1028.3 |
| 20260904021926 | 74 | 180 | 0.0 | 0.0 | 0.00 | 0.03 | 0.03 | 89 | 1028.3 |
| 20260904020928 | 74 | 180 | 0.0 | 0.0 | 0.00 | 0.03 | 0.03 | 90 | 1028.3 |
| 20260904015926 | 74 | 180 | 0.0 | 0.0 | 0.00 | 0.03 | 0.03 | 90 | 1028.4 |
| 20260904014927 | 74 | 180 | 0.0 | 0.0 | 0.00 | 0.03 | 0.03 | 90 | 1028.4 |
| 20260904012926 | 74 | 180 | 0.0 | 0.0 | 0.00 | 0.03 | 0.03 | 89 | 1028.8 |
| 20260904011928 | 74 | 180 | 0.0 | 0.0 | 0.00 | 0.03 | 0.03 | 89 | 1028.7 |
| 20260904011026 | 74 | 180 | 0.0 | 0.0 | 0.00 | 0.03 | 0.03 | 88 | 1028.6 |
| 20260904010026 | 75 | 180 | 0.0 | 0.0 | 0.00 | 0.03 | 0.03 | 87 | 1028.8 |
| 20260904005027 | 75 | 180 | 0.0 | 0.0 | 0.00 | 0.03 | 0.03 | 87 | 1028.6 |
| 20260904004028 | 75 | 180 | 0.0 | 0.0 | 0.00 | 0.03 | 0.03 | 87 | 1028.2 |
| 20260904003027 | 75 | 180 | 0.0 | 0.0 | 0.00 | 0.03 | 0.03 | 87 | 1028.4 |
| 20260904001126 | 76 | 180 | 0.0 | 0.0 | 0.00 | 0.03 | 0.03 | 86 | 1028.3 |
| 20260904000127 | 76 | 180 | 0.0 | 0.0 | 0.00 | 0.03 | 0.03 | 85 | 1027.9 |
| 20260903235128 | 77 | 180 | 0.0 | 0.0 | 0.00 | 0.03 | 0.03 | 83 | 1027.9 |
| 20260903233226 | 77 | 180 | 0.0 | 0.0 | 0.00 | 0.03 | 0.03 | 82 | 1027.7 |
| 20260903232325 | 78 | 180 | 0.0 | 0.0 | 0.00 | 0.03 | 0.03 | 81 | 1027.8 |
| 20260903231328 | 78 | 180 | 0.0 | 0.0 | 0.00 | 0.03 | 0.03 | 80 | 1027.8 |
| 20260903230426 | 79 | 180 | 0.0 | 0.0 | 0.00 | 0.03 | 0.03 | 79 | 1028.0 |
| 20260903225426 | 80 | 180 | 0.0 | 0.0 | 0.00 | 0.03 | 0.03 | 79 | 1028.1 |
| 20260903224428 | 80 | 180 | 0.0 | 0.0 | 0.00 | 0.03 | 0.03 | 78 | 1028.2 |
| 20260903223526 | 81 | 180 | 0.0 | 0.0 | 0.00 | 0.03 | 0.03 | 76 | 1028.2 |
| 20260903222625 | 81 | 180 | 0.0 | 0.0 | 0.00 | 0.03 | 0.03 | 76 | 1028.1 |
| 20260903221628 | 82 | 180 | 0.0 | 0.0 | 0.00 | 0.03 | 0.03 | 76 | 1028.0 |
| 20260903220726 | 82 | 180 | 0.0 | 0.0 | 0.00 | 0.03 | 0.03 | 75 | 1028.1 |
| 20260903215727 | 82 | 180 | 0.0 | 0.0 | 0.00 | 0.03 | 0.03 | 74 | 1027.9 |
| 20260903214727 | 83 | 180 | 0.0 | 0.0 | 0.00 | 0.03 | 0.03 | 71 | 1028.1 |
| 20260903213729 | 83 | 180 | 0.0 | 0.0 | 0.00 | 0.03 | 0.03 | 71 | 1027.9 |
| 20260903212725 | 83 | 180 | 0.0 | 0.0 | 0.00 | 0.03 | 0.03 | 71 | 1028.0 |
| 20260903211727 | 83 | 180 | 0.0 | 0.0 | 0.00 | 0.03 | 0.03 | 71 | 1028.0 |
| 20260903210728 | 83 | 180 | 0.0 | 0.0 | 0.00 | 0.03 | 0.03 | 71 | 1028.0 |
| 20260903202926 | 82 | 180 | 0.0 | 0.0 | 0.00 | 0.05 | 0.03 | 71 | 1028.1 |
| 20260903201926 | 82 | 180 | 0.0 | 0.0 | 0.00 | 0.13 | 0.03 | 71 | 1028.0 |
| 20260903200928 | 82 | 180 | 0.0 | 0.0 | 0.00 | 0.17 | 0.03 | 71 | 1028.0 |
| 20260903195928 | 82 | 180 | 0.0 | 0.0 | 0.00 | 0.23 | 0.03 | 71 | 1028.2 |
| 20260903195025 | 82 | 180 | 0.0 | 0.0 | 0.00 | 0.27 | 0.03 | 71 | 1028.3 |
| 20260903194125 | 82 | 180 | 0.0 | 0.0 | 0.00 | 0.32 | 0.03 | 70 | 1028.4 |
| 20260903193126 | 82 | 180 | 0.0 | 0.0 | 0.00 | 0.34 | 0.03 | 69 | 1028.3 |
| 20260903192127 | 83 | 180 | 0.0 | 0.0 | 0.00 | 0.34 | 0.03 | 68 | 1028.5 |
| 20260903190126 | 82 | 180 | 0.0 | 0.0 | 0.00 | 0.34 | 0.03 | 69 | 1028.7 |
| 20260903185126 | 83 | 180 | 0.0 | 0.0 | 0.00 | 0.34 | 0.03 | 67 | 1028.6 |
| 20260903183227 | 82 | 180 | 0.0 | 0.0 | 0.00 | 0.34 | 0.03 | 69 | 1028.8 |
| 20260903182227 | 83 | 180 | 0.0 | 0.0 | 0.00 | 0.34 | 0.03 | 67 | 1028.9 |
| 20260903181226 | 83 | 180 | 0.0 | 0.0 | 0.00 | 0.34 | 0.03 | 67 | 1028.9 |
| 20260903180226 | 82 | 180 | 0.0 | 1.0 | 0.00 | 0.34 | 0.03 | 69 | 1028.9 |